Location: Unspecified
(0.0000°N, 0.0000°E)
Time: 23:35:41
(UTC+00:00)

GONETS M 08 (M18) - Pass Details

Date: 22 May 2026
Orbit: 1470 x 1518 km, 82.5° (Epoch: 7 June)

Event Time Altitude Azimuth Distance (km) Brightness Sun altitude
Rises 04:49:54 0° 172° (S) 4,645 ? -15.6°
Reaches altitude 10° 04:52:55 10° 166° (SSE) 3,667 ? -14.9°
Maximum altitude 05:01:24 51° 93° (E) 1,845 ? -12.9°
Drops below altitude 10° 05:09:52 10° 20° (NNE) 3,671 ? -11.0°
Sets 05:12:52 0° 15° (NNE) 4,650 ? -10.3°
